THORAD DELTA 1 DEB, 8170

Orbit data source: Space-Track

THORAD DELTA 1 DEB, 8170 is space debris in SSO originally from a launch on Fri, 15 Nov 1974 UTC launched from the Air Force Western Test Range (AFWTR). Debris objects in space refer to the collection of defunct objects orbiting the Earth. Examples of debris include non-operational satellites, rocket bodies, and fragments generated from explosions, collisions, or faulty payload assembly.

Loading next visibility...
Identifier
8170, 1974-089AL
Orbit
SSO
Country
Flag of USUS
Related business
Manufacturer
Unknown
Mission
Spacecraft
Bus & Motor
Unknown
Mass
Unknown
Launch date (UTC)
1974-11-15 (52 years ago)
Launch vehicle
Unknown
Launch site
Air Force Western Test Range (AFWTR)
Object type
Payload
Rocket body
Debris
Shape & HBR
Unknown shape, 0.081 m
Radar Cross Section
Medium (>0.1 m² and <1 m²)

Expand to show TLE details & history
Last TLE update: 2 days ago

TLE from 2 days ago
0 THORAD DELTA 1 DEB
1 08170U 74089AL  26266.12956350  .00011504  00000-0  46838-2 0  9999
2 08170 101.6105 333.7388 0057544 146.5409 244.6691 14.26790387503963
Epoch: 2026-09-23T03:06Z
TLE epoch observation values (Epoch: 2026-09-23T03:06:34.286Z)
Latitude
29.97811°
Longitude
-81.6596°
Altitude
824.001 km
Speed
7.435 km/s
True Right ascension
21h 47m 52s
True Declination
29° 49' 51"
Sunlit
Object was in full shadow at epoch
Visualization orbit readout
Latitude
Unknown
Longitude
Unknown
Altitude
Unknown
Speed
Unknown
Apparent Right ascension
Unknown
Apparent Declination
Unknown
Sunlit
N/A
Visualization observer readout
Local Sidereal Time
09:55:20
Azimuth
Unknown
Elevation
Unknown
Doppler factor
Unknown
Orbital elements
Apogee altitude
841.095 km
Perigee altitude
758.486 km
Semi-major axis
7,177.927 km
Eccentricity
0.00575
Inclination
101.6105°
RAAN
333.7388°
Arg. of periapsis
146.5409°
True anomaly
244.07493°
Mean anomaly
244.6691°
Eccentric anomaly
244.37183°
Mean motion
3.56898 °/min
Orbital period
100.87 mins
BSTAR
0.0046838
Loading maneuver chart data...
Computing Atmospheric mass density...

Documentation

Showing up to 5 results
|